Temp
18 19 20 20 20 20 20 21 22 24 24 22 22 21 21 21 20 21 20 21 22 21 22 22 22 21 20 20 20 20 19 19 19 19 19 19 20 20
19 18 19 20 20 20 20 20 20 21 23 22 22 21 20 21 21 22 21 21 21 21 21 22 22 20 20 20 20 20 19 19 18 18 19 20 20 20
18 18 18 19 20 20 20 20 20 21 21 22 22 21 20 20 22 22 21 21 22 21 21 22 21 20 20 20 20 19 19 18 18 19 19 20 20 19
18 18 18 19 20 20 20 19 20 20 20 20 21 21 20 20 21 23 20 21 21 21 21 21 21 20 20 20 20 19 18 18 19 19 20 20 19 19
18 18 18 18 18 20 19 20 20 20 20 20 21 21 21 20 20 21 21 20 22 22 21 21 20 20 20 20 20 19 19 18 19 19 19 19 19 19
18 18 18 18 18 18 18 19 19 19 20 20 21 21 22 21 20 21 22 22 22 21 22 21 21 20 20 20 20 19 19 18 19 19 19 19 19 19
19 18 18 19 19 19 19 19 19 19 20 21 21 22 22 22 21 21 21 22 21 21 21 21 22 21 20 20 20 19 19 19 18 18 19 19 19 19
19 19 20 19 20 20 20 20 20 18 18 20 21 21 21 20 21 21 21 21 21 22 21 21 21 21 19 18 19 20 19 19 18 18 18 19 19 19
19 19 19 20 20 20 20 20 20 20 20 20 19 19 20 19 19 18 19 19 20 20 20 21 21 22 20 20 20 20 19 19 19 18 18 18 19 19
19 19 19 20 20 19 20 19 20 20 21 21 21 21 21 20 20 19 18 19 19 20 21 21 21 22 20 19 20 20 20 19 19 18 18 18 18 18
19 19 19 19 20 21 20 19 19 19 20 20 21 21 21 21 20 19 19 20 21 22 22 22 21 22 21 19 18 20 19 19 19 18 18 18 18 18
20 20 20 20 20 20 21 21 20 20 20 20 20 20 21 21 21 21 20 20 21 22 22 22 22 22 22 20 18 19 20 19 19 18 18 18 17 17
20 21 20 20 22 22 22 21 21 21 20 19 19 20 20 20 19 20 21 20 21 22 22 21 21 21 22 21 19 18 17 19 19 18 18 17 17 17
20 21 21 20 20 20 21 22 22 22 20 20 21 21 22 22 22 21 20 20 20 21 21 21 20 21 21 21 21 19 18 17 17 17 15 17 17 17
19 20 20 20 20 19 19 21 21 20 19 20 20 21 21 22 22 21 20 19 19 20 21 22 20 19 19 20 20 19 18 17 16 18 17 17 16 16
21 20 20 19 19 18 18 19 20 20 19 19 20 21 21 21 22 21 21 21 20 20 21 20 20 20 19 19 19 19 19 18 17 16 17 17 17 17
21 21 20 19 18 18 18 18 18 19 20 19 19 20 21 21 21 21 21 21 21 21 22 22 20 20 20 20 19 19 19 18 18 16 17 17 15 14
18 18 19 19 20 20 20 20 19 19 19 19 19 20 20 21 21 21 21 21 21 21 22 22 21 19 18 19 20 19 19 18 18 17 17 16 16 15
18 17 19 20 20 20 20 20 20 21 20 20 20 20 20 20 20 21 21 21 21 21 21 22 21 19 18 18 19 18 19 18 17 16 15 15 15 15
17 18 17 19 20 20 20 20 20 20 20 20 20 19 19 20 20 20 21 20 21 21 21 20 19 19 18 18 19 18 17 18 17 16 15 15 14 15
19 18 18 18 18 18 18 18 19 19 19 20 20 20 19 19 19 20 21 21 21 21 20 19 19 19 18 17 17 17 18 17 16 15 14 15 14 14
19 19 19 18 18 18 18 18 18 18 18 18 19 18 18 19 19 20 20 20 20 20 19 19 18 18 17 17 17 18 16 16 16 15 15 14 14 14
20 19 21 20 19 18 18 18 18 18 18 18 18 18 18 18 18 18 19 19 19 18 18 18 17 17 17 17 16 16 16 15 15 15 14 14 14 13
Height
1622 1623 1625 1626 1626 1626 1627 1627 1627 1624 1624 1625 1626 1624 1624 1623 1619 1616 1615 1611 1609 1606 1602 1600 1598 1595 1591 1587 1583 1581 1578 1576 1574 1572 1570 1568 1566 1563
1621 1622 1622 1625 1624 1625 1626 1626 1627 1627 1625 1625 1624 1623 1620 1619 1619 1614 1612 1609 1607 1604 1600 1598 1596 1593 1590 1586 1583 1581 1578 1575 1573 1571 1569 1566 1565 1562
1618 1619 1620 1620 1622 1623 1624 1624 1625 1625 1624 1624 1623 1622 1617 1616 1614 1612 1611 1609 1610 1603 1600 1596 1594 1592 1588 1586 1583 1579 1577 1575 1573 1570 1568 1565 1563 1560
1616 1616 1617 1618 1618 1619 1621 1621 1622 1622 1622 1621 1620 1619 1617 1614 1612 1609 1608 1608 1605 1603 1599 1594 1592 1590 1587 1585 1582 1579 1576 1574 1572 1569 1566 1564 1561 1558
1612 1613 1614 1615 1615 1617 1617 1619 1619 1619 1619 1618 1617 1617 1615 1613 1611 1609 1606 1605 1605 1602 1599 1593 1591 1589 1586 1583 1581 1578 1575 1572 1571 1568 1565 1562 1559 1556
1609 1610 1610 1611 1612 1613 1614 1615 1615 1615 1616 1615 1614 1613 1612 1611 1609 1608 1607 1605 1603 1600 1598 1595 1590 1587 1586 1582 1579 1577 1574 1572 1570 1567 1564 1561 1558 1554
1605 1605 1606 1607 1607 1608 1611 1611 1613 1612 1612 1612 1611 1610 1609 1608 1607 1606 1603 1602 1600 1598 1595 1594 1591 1585 1582 1580 1578 1575 1573 1570 1568 1566 1563 1559 1556 1553
1600 1601 1602 1602 1603 1603 1604 1605 1606 1607 1607 1608 1607 1606 1605 1604 1604 1602 1600 1598 1597 1597 1593 1591 1590 1588 1584 1579 1576 1573 1571 1569 1566 1564 1561 1558 1554 1550
1595 1596 1597 1599 1598 1599 1599 1600 1600 1601 1601 1601 1600 1600 1599 1599 1598 1596 1596 1594 1593 1592 1590 1587 1586 1583 1580 1576 1574 1572 1569 1567 1564 1562 1560 1557 1553 1549
1588 1590 1590 1592 1593 1593 1594 1595 1594 1594 1594 1594 1593 1592 1593 1592 1591 1592 1590 1588 1587 1586 1586 1583 1582 1581 1577 1572 1569 1569 1567 1565 1563 1561 1558 1555 1552 1548
1578 1580 1582 1583 1585 1586 1588 1589 1589 1589 1590 1588 1587 1587 1586 1586 1586 1585 1585 1585 1583 1582 1582 1580 1579 1577 1573 1569 1563 1564 1563 1561 1560 1559 1556 1553 1550 1547
1567 1568 1570 1572 1575 1578 1579 1580 1580 1581 1583 1584 1581 1579 1578 1577 1578 1577 1577 1578 1577 1576 1577 1576 1575 1573 1570 1566 1564 1558 1558 1557 1556 1555 1554 1551 1549 1546
1558 1560 1560 1560 1563 1566 1569 1570 1570 1574 1576 1575 1575 1574 1573 1573 1572 1569 1569 1569 1571 1570 1571 1569 1569 1568 1567 1565 1562 1558 1552 1552 1551 1551 1550 1548 1546 1544
1548 1551 1553 1554 1554 1555 1558 1559 1562 1565 1566 1567 1566 1565 1566 1566 1566 1566 1563 1560 1561 1561 1562 1562 1562 1562 1561 1559 1558 1556 1551 1549 1548 1546 1544 1542 1543 1542
1537 1541 1544 1546 1547 1547 1547 1548 1551 1552 1552 1554 1554 1555 1556 1558 1558 1558 1557 1555 1553 1552 1552 1552 1551 1552 1553 1552 1551 1549 1549 1546 1542 1542 1541 1540 1538 1537
1528 1530 1533 1535 1536 1537 1537 1536 1537 1538 1540 1542 1544 1546 1548 1548 1549 1550 1550 1549 1547 1546 1544 1543 1543 1543 1542 1543 1543 1541 1540 1541 1538 1537 1537 1536 1535 1533
1520 1521 1523 1524 1524 1525 1527 1528 1529 1528 1528 1531 1534 1536 1538 1539 1539 1540 1541 1541 1539 1539 1539 1539 1533 1534 1534 1533 1532 1533 1534 1535 1536 1534 1532 1532 1532 1529
1511 1511 1513 1515 1515 1517 1518 1519 1520 1521 1522 1523 1524 1526 1527 1528 1529 1530 1531 1531 1530 1529 1529 1530 1530 1526 1524 1522 1524 1524 1526 1528 1529 1527 1527 1526 1527 1528
1499 1503 1504 1506 1507 1509 1510 1511 1511 1512 1514 1514 1515 1515 1516 1517 1518 1519 1520 1521 1520 1520 1519 1520 1520 1518 1517 1516 1519 1516 1518 1519 1522 1523 1523 1522 1522 1522
1490 1491 1494 1498 1499 1500 1502 1503 1505 1506 1506 1506 1506 1506 1506 1507 1508 1508 1509 1510 1511 1511 1510 1510 1508 1508 1508 1509 1510 1510 1506 1510 1513 1513 1516 1516 1515 1513
1479 1481 1483 1486 1489 1490 1491 1493 1495 1496 1497 1498 1498 1498 1498 1498 1498 1498 1498 1499 1500 1501 1499 1497 1497 1499 1500 1501 1500 1500 1497 1499 1501 1504 1506 1509 1509 1509
1470 1471 1473 1475 1478 1481 1483 1484 1485 1485 1485 1486 1486 1487 1486 1487 1487 1489 1489 1489 1489 1489 1488 1490 1490 1489 1491 1490 1492 1493 1491 1489 1490 1494 1497 1499 1501 1502
1461 1463 1465 1467 1468 1470 1472 1474 1475 1475 1476 1477 1478 1478 1477 1476 1476 1476 1477 1478 1478 1479 1480 1479 1480 1480 1480 1482 1484 1487 1484 1485 1482 1482 1485 1488 1490 1491
Wind_Speed
7 7 6 6 3 1 1 2 0 1 1 1 1 5 6 7 13 15 13 18 16 18 20 21 22 20 20 18 16 14 12 10 9 11 13 11 13 14
10 11 10 8 7 5 4 4 3 3 5 3 5 7 9 8 12 16 16 18 19 22 20 22 21 20 19 18 16 14 12 9 10 13 12 14 13 14
12 12 12 13 9 9 8 7 7 7 8 8 8 9 13 11 13 16 14 14 13 20 21 22 19 18 17 17 16 14 12 10 13 12 14 14 15 15
11 12 13 12 16 14 11 11 10 10 10 12 12 11 12 13 14 16 14 12 15 15 21 24 19 17 17 16 15 15 14 12 11 14 16 16 18 19
11 12 12 13 15 13 13 12 10 10 11 12 13 12 12 13 13 13 15 14 13 18 17 21 20 18 15 15 14 15 16 14 14 17 17 18 19 20
15 14 14 14 14 13 13 13 12 13 13 14 14 13 13 12 13 13 15 14 15 15 13 14 20 22 17 15 15 15 16 15 14 17 18 20 21 23
16 17 15 16 17 16 14 14 14 14 13 15 15 14 14 13 13 15 16 16 16 14 13 12 16 21 21 17 15 16 17 17 14 18 19 20 22 24
18 19 18 18 16 16 17 18 20 19 18 18 17 18 19 17 15 15 16 17 18 13 15 17 13 14 13 11 16 16 17 17 16 18 20 21 23 24
22 22 21 21 22 21 20 20 20 20 22 22 23 22 22 19 18 17 17 18 17 17 19 18 14 15 17 20 16 16 17 18 18 18 20 21 22 23
27 25 25 26 25 24 22 21 22 21 23 24 27 26 25 23 21 18 19 20 18 16 15 18 14 15 14 18 17 15 14 16 19 20 20 21 21 22
40 38 34 31 31 31 28 25 24 24 22 26 26 27 27 24 24 22 21 19 21 17 15 18 17 14 18 16 22 12 14 17 18 19 19 20 21 23
39 42 45 44 40 38 37 35 35 32 26 24 25 29 29 28 26 26 26 23 22 21 16 16 14 15 18 15 13 25 19 18 17 17 17 18 19 20
34 35 36 39 42 43 43 42 42 36 29 28 27 27 26 25 23 24 29 29 25 24 20 20 19 18 18 21 21 16 18 21 17 17 16 16 17 19
38 34 34 36 39 39 39 41 41 40 35 31 31 30 28 26 25 25 27 30 26 28 27 26 25 21 20 22 22 20 22 13 15 14 14 19 17 17
39 35 35 36 36 37 39 39 35 36 37 35 35 33 30 28 28 28 28 28 30 30 29 30 27 24 22 24 23 21 17 15 14 16 15 16 18 19
41 41 39 39 36 34 35 38 38 38 35 32 33 32 30 28 28 26 27 26 25 23 25 27 27 26 25 24 23 23 21 15 15 14 15 16 20 19
38 39 37 35 34 33 31 31 28 31 39 35 31 31 30 29 29 27 28 27 27 26 25 24 28 26 26 26 28 28 26 20 17 15 17 15 13 17
28 30 32 32 33 31 30 30 29 31 29 27 29 30 31 30 30 28 28 29 29 27 26 24 25 25 28 30 28 29 25 19 18 22 22 17 14 12
32 33 30 33 33 31 31 31 32 29 28 29 30 29 29 30 30 31 30 30 31 30 29 26 27 31 30 25 19 21 21 21 18 17 16 14 13 10
32 34 35 31 32 33 31 31 29 27 28 29 29 28 28 28 29 30 30 31 32 31 31 30 33 31 33 29 23 20 21 18 20 19 15 13 15 19
37 36 40 37 34 35 34 32 31 31 30 30 30 30 28 27 28 29 30 32 32 31 33 32 35 31 32 28 28 20 25 26 26 21 17 16 14 12
36 35 36 33 40 40 35 34 34 35 36 35 34 31 35 35 31 30 29 30 31 31 33 29 30 32 33 31 26 22 29 28 24 24 23 20 17 12
36 36 36 40 39 35 36 37 38 36 37 37 37 35 33 36 36 36 36 35 34 30 25 31 29 30 31 28 28 21 25 27 23 21 21 21 21 21
Wind_Direction
223 218 187 215 223 243 338 51 35 275 178 290 226 311 333 330 314 334 335 331 342 343 341 345 348 355 357 1 359 351 351 351 359 353 351 359 349 348
213 224 207 220 233 246 254 271 283 269 279 275 279 300 305 309 309 326 333 343 337 333 337 343 348 354 356 358 358 353 357 358 349 345 355 355 359 352
218 225 226 227 226 241 250 256 262 271 272 273 291 303 309 311 312 319 329 341 323 318 333 338 345 350 353 353 354 351 355 353 345 354 351 357 357 355
227 225 231 233 238 235 245 251 251 256 266 277 281 293 298 302 310 319 316 320 313 317 328 339 345 344 351 353 354 358 356 356 358 351 353 355 356 354
229 231 232 233 235 230 244 245 260 268 270 277 277 284 285 297 298 316 315 319 332 313 333 328 329 340 345 348 350 353 1 357 356 355 356 355 354 353
234 235 235 232 235 241 241 248 251 252 264 273 275 279 286 288 299 309 309 310 313 321 311 325 321 335 339 346 350 351 350 351 352 356 352 351 351 353
237 238 238 235 238 236 235 252 245 257 261 264 270 275 278 282 279 299 301 306 313 315 311 332 322 322 317 331 340 337 339 344 341 348 348 346 349 353
240 241 240 245 240 242 247 245 244 248 254 254 261 267 271 282 290 292 289 296 299 303 302 311 316 295 277 303 328 326 328 335 333 338 342 344 347 353
243 243 242 245 253 251 252 252 253 254 259 264 263 263 267 274 280 282 286 283 284 287 298 300 305 298 290 289 307 312 319 324 326 328 337 343 346 350
244 245 244 239 238 244 246 248 253 255 258 260 266 274 277 280 278 276 278 284 291 297 296 293 300 303 286 279 297 308 314 320 316 322 329 337 342 346
247 247 245 246 247 248 249 246 248 250 257 269 272 274 276 273 267 266 265 273 279 282 283 285 291 296 292 280 294 301 310 314 309 316 323 331 337 341
251 252 253 251 251 253 253 254 254 253 254 256 264 269 271 270 264 259 264 262 270 279 283 278 285 289 296 287 262 298 305 309 305 311 315 322 332 339
244 246 248 252 253 251 253 254 255 258 257 259 260 262 264 265 269 264 258 258 262 270 275 273 275 280 279 283 292 284 293 311 304 308 311 317 325 331
241 246 249 251 256 259 256 254 256 258 256 254 255 257 259 259 259 259 262 270 264 265 269 262 264 265 272 279 286 280 286 274 285 297 298 310 315 323
243 244 246 248 254 258 258 257 254 252 250 248 250 252 252 256 257 257 257 255 263 268 269 271 262 259 264 269 275 265 274 277 269 292 294 296 304 315
247 248 247 249 249 252 257 257 250 246 243 245 247 251 253 253 254 256 256 256 262 267 275 276 274 260 256 258 263 269 270 256 269 268 287 287 298 303
244 247 248 248 248 247 247 242 246 245 243 243 243 247 249 249 250 251 252 257 257 260 262 264 269 268 267 264 264 269 273 261 250 255 278 281 279 287
252 242 240 243 242 243 242 241 241 239 240 243 243 244 245 245 248 249 250 251 254 256 257 259 259 259 264 263 259 262 268 246 249 255 265 268 272 274
246 242 244 241 244 243 243 242 239 239 241 239 240 242 243 245 245 246 248 251 251 252 252 254 253 250 244 251 262 272 261 249 240 244 253 258 264 263
245 244 240 243 244 245 242 243 246 245 242 242 243 242 241 243 245 246 247 249 251 254 256 254 247 243 241 248 261 258 259 237 233 232 240 251 253 272
245 243 242 239 245 245 246 244 243 244 243 240 243 243 243 245 247 246 247 249 250 253 254 251 256 263 263 257 256 238 245 242 224 234 236 235 244 261
245 244 244 247 251 250 253 250 248 251 256 256 254 249 253 245 244 248 248 251 253 251 251 253 252 263 265 250 243 236 236 245 240 240 245 246 239 240
252 251 257 255 259 266 263 259 256 255 256 257 260 263 263 262 257 257 258 260 253 249 246 253 261 255 238 251 237 229 223 232 243 240 248 253 249 250